This is the latest recevied weather packets stored in our database for station/object W4MLN-3. If no packets are shown the sender has not sent any weather packets the latest 10 day(s).
| Time | Temp. | Humidity | Pressure | Rain* | Wind** | Luminosity | Snow |
|---|---|---|---|---|---|---|---|
| 1777512324 | 15° C | 81% | 1011.1 hPa | 0 mm | - | - | - |
| 1777512003 | 15° C | 81% | 1011.1 hPa | 0 mm | - | - | - |
| 1777511724 | 15° C | 81% | 1011 hPa | 0 mm | - | - | - |
| 1777511403 | 15° C | 81% | 1010.9 hPa | 0 mm | - | - | - |
| 1777511103 | 15° C | 81% | 1010.9 hPa | 0 mm | - | - | - |
| 1777510803 | 15° C | 82% | 1010.8 hPa | 0 mm | - | - | - |
| 1777510503 | 15° C | 82% | 1010.7 hPa | 0 mm | - | - | - |
| 1777510203 | 15° C | 84% | 1010.7 hPa | 0 mm | - | - | - |
| 1777509903 | 15° C | 84% | 1010.7 hPa | 0.51 mm | - | - | - |
| 1777509603 | 15° C | 85% | 1010.7 hPa | 0.76 mm | - | - | - |
| 1777509303 | 15° C | 84% | 1010.6 hPa | 1.02 mm | - | - | - |
| 1777509003 | 15° C | 84% | 1010.6 hPa | 1.02 mm | - | - | - |
| 1777508703 | 15.56° C | 83% | 1010.7 hPa | 1.02 mm | - | - | - |
| 1777508403 | 15.56° C | 83% | 1010.6 hPa | 1.02 mm | - | - | - |
| 1777508103 | 15.56° C | 83% | 1010.4 hPa | 1.02 mm | - | - | - |
| 1777507803 | 15.56° C | 82% | 1010.2 hPa | 1.02 mm | - | - | - |
| 1777507503 | 15.56° C | 81% | 1010.2 hPa | 1.02 mm | - | - | - |
| 1777507203 | 16.11° C | 81% | 1010.1 hPa | 1.02 mm | - | - | - |
| 1777506924 | 16.11° C | 81% | 1010.2 hPa | 1.02 mm | - | - | - |
| 1777506603 | 16.67° C | 81% | 1010.2 hPa | 1.02 mm | - | - | - |
| 1777506325 | 17.22° C | 78% | 1010.1 hPa | 0.51 mm | - | - | - |
| 1777506003 | 17.78° C | 75% | 1010.1 hPa | 0.25 mm | - | - | - |
| 1777505745 | 17.78° C | 72% | 1009.7 hPa | 0 mm | - | - | - |
| 1777505404 | 17.78° C | 72% | 1009.6 hPa | 0 mm | - | - | - |
| 1777505103 | 17.78° C | 72% | 1009.7 hPa | 0 mm | - | - | - |
* Rain latest hour (hover to see other rain measurements)
** Current wind speed in m/s (hover to see current wind gust speed)